Weather History for KLUM - January, 2014

Change the Weather History Date:

Friday, January 3, 2014

  Actual Average (KEAU) Record (KEAU)
Temperature  
Mean Temperature 3 °F 15 °F  
Max Temperature 24 °F 23 °F 44 °F (1998)
Min Temperature -18 °F 6 °F -28 °F (1911)
Degree Days  
Heating Degree Days 62 50  
Month to date heating degree days 150  
Since 1 July heating degree days 3326  
Cooling Degree Days 0 0  
Month to date cooling degree days 0  
Year to date cooling degree days 0  
Moisture  
Dew Point -2 °F    
Average Humidity 69    
Maximum Humidity 78    
Minimum Humidity 54    
Precipitation  
Precipitation 0.00 in 0.02 in 1.20 in (1906)
Month to date precipitation 0.08  
Year to date precipitation 0.08  
Snow  
Snow 0.00 in 0.40 in 12.00 in (1906)
Month to date snowfall 1.1  
Since 1 July snowfall 16.9  
Snow Depth -    
Sea Level Pressure  
Sea Level Pressure 29.91 in    
Wind  
Wind Speed 7 mph (SSE)    
Max Wind Speed 23 mph    
Max Gust Speed 30 mph    
Visibility 10 miles    
Events      
T = Trace of Precipitation, MM = Missing Value Source: NWS Daily Summary

Daily Weather History Graph

Daily Weather History Graph

Search for Another Location

Airport or City:

Trip Planner

Search our weather history database for the weather conditions in past years. The results will help you decide how hot, cold, wet, or windy it might be!

Date:

Astronomy

Jan. 03, 2014 Rise Set
Actual Time 7:45 AM CST 4:38 PM CST
Civil Twilight 7:11 AM CST 5:12 PM CST
Nautical Twilight 6:34 AM CST 5:49 PM CST
Astronomical Twilight 5:59 AM CST 6:24 PM CST
Moon 9:03 AM CST (1/3) 7:57 PM CST (1/3)
Length of Visible Light 10h 00m
Length of Day
8h 53m
Waxing Crescent, 8% of the Moon is Illuminated
Jan 3
Waxing Crescent
Jan 7
First Quarter
Jan 15
Full
Jan 23
Last Quarter
Jan 30
New

Hourly Weather History & Observations

Time (CST) Temp. Windchill Dew Point Humidity Pressure Visibility Wind Dir Wind Speed Gust Speed Precip Events Conditions
12:15 AM -13.7 °F - -20.2 °F 73% 30.36 in 10.0 mi Calm Calm - N/A   Clear
12:35 AM -17.1 °F -27.4 °F -23.8 °F 72% 30.35 in 10.0 mi East 3.5 mph - N/A   Clear
12:55 AM -18.2 °F - -24.9 °F 72% 30.36 in 10.0 mi Calm Calm - N/A   Clear
1:15 AM -15.7 °F - -21.8 °F 74% 30.36 in 4.0 mi Calm Calm - N/A   Haze
1:35 AM -17.1 °F - -23.8 °F 72% 30.35 in 10.0 mi Calm Calm - N/A   Clear
1:55 AM -17.9 °F - -24.5 °F 72% 30.35 in 10.0 mi Calm Calm - N/A   Clear
2:15 AM -17.9 °F -28.2 °F -24.7 °F 71% 30.34 in 10.0 mi East 3.5 mph - N/A   Clear
2:35 AM -17.1 °F - -23.8 °F 72% 30.34 in 10.0 mi Calm Calm - N/A   Clear
2:55 AM -18.4 °F - -24.9 °F 72% 30.33 in 10.0 mi Calm Calm - N/A   Clear
3:15 AM -17.5 °F - -24.0 °F 72% 30.32 in 10.0 mi Calm Calm - N/A   Clear
3:35 AM -17.7 °F - -24.2 °F 72% 30.32 in 10.0 mi Calm Calm - N/A   Clear
3:55 AM -17.1 °F -27.4 °F -23.8 °F 72% 30.31 in 10.0 mi East 3.5 mph - N/A   Clear
4:15 AM -17.5 °F -27.8 °F -23.8 °F 73% 30.28 in 10.0 mi East 3.5 mph - N/A   Clear
4:35 AM -17.5 °F -27.8 °F -23.8 °F 73% 30.27 in 10.0 mi East 3.5 mph - N/A   Scattered Clouds
4:55 AM -17.1 °F - -23.4 °F 73% 30.26 in 10.0 mi Calm Calm - N/A   Mostly Cloudy
5:15 AM -13.0 °F -25.1 °F -18.8 °F 75% 30.25 in 10.0 mi ESE 4.6 mph - N/A   Overcast
5:35 AM -11.2 °F -29.0 °F -17.0 °F 76% 30.21 in 10.0 mi ESE 9.2 mph - N/A   Overcast
5:55 AM -10.3 °F -23.8 °F -15.9 °F 76% 30.20 in 10.0 mi East 5.8 mph - N/A   Overcast
6:15 AM -8.9 °F -25.0 °F -14.6 °F 76% 30.20 in 10.0 mi ESE 8.1 mph - N/A   Overcast
6:35 AM -7.8 °F -23.6 °F -13.0 °F 78% 30.19 in 10.0 mi ESE 8.1 mph - N/A   Overcast
6:55 AM -6.3 °F -19.1 °F -11.6 °F 78% 30.19 in 10.0 mi ESE 5.8 mph - N/A   Overcast
7:15 AM -5.3 °F -17.8 °F -10.5 °F 78% 30.18 in 10.0 mi SE 5.8 mph - N/A   Mostly Cloudy
7:35 AM -4.0 °F -20.2 °F -9.8 °F 76% 30.15 in 10.0 mi ESE 9.2 mph - N/A   Overcast
7:55 AM -2.4 °F -15.8 °F -8.5 °F 75% 30.15 in 10.0 mi SE 6.9 mph - N/A   Overcast
8:15 AM -0.4 °F -13.4 °F -7.6 °F 72% 30.13 in 10.0 mi SE 6.9 mph - N/A   Overcast
8:35 AM 0.7 °F -15.4 °F -6.7 °F 71% 30.10 in 10.0 mi ESE 10.4 mph - N/A   Overcast
8:55 AM 2.3 °F -14.2 °F -5.8 °F 69% 30.08 in 10.0 mi SE 11.5 mph - N/A   Overcast
9:15 AM 3.2 °F -11.3 °F -5.1 °F 68% 30.06 in 10.0 mi SE 9.2 mph - N/A   Overcast
9:35 AM 4.1 °F -12.0 °F -4.9 °F 66% 30.05 in 10.0 mi SE 11.5 mph - N/A   Overcast
9:55 AM 5.2 °F -10.6 °F -4.2 °F 65% 30.03 in 7.0 mi SE 11.5 mph - N/A   Mostly Cloudy
10:15 AM 6.4 °F -9.0 °F -3.8 °F 63% 30.01 in 10.0 mi SE 11.5 mph - N/A   Mostly Cloudy
10:35 AM 8.4 °F -7.9 °F -3.8 °F 58% 29.99 in 10.0 mi SSE 13.8 mph - N/A   Overcast
10:55 AM 9.1 °F -6.4 °F -3.6 °F 56% 29.97 in 10.0 mi SSE 12.7 mph 19.6 mph N/A   Overcast
11:15 AM 9.5 °F -5.2 °F -3.5 °F 56% 29.95 in 10.0 mi SSE 11.5 mph 21.9 mph N/A   Overcast
11:35 AM 10.0 °F -5.2 °F -3.3 °F 55% 29.91 in 7.0 mi SSE 12.7 mph 26.5 mph N/A   Overcast
11:55 AM 10.9 °F -6.5 °F -2.0 °F 56% 29.88 in 10.0 mi SE 17.3 mph 23.0 mph N/A   Overcast
12:15 PM 11.8 °F -5.8 °F -1.8 °F 54% 29.86 in 10.0 mi SSE 18.4 mph 27.6 mph N/A   Overcast
12:35 PM 12.6 °F -4.4 °F -1.1 °F 54% 29.84 in 10.0 mi SSE 17.3 mph 25.3 mph N/A   Overcast
12:55 PM 13.6 °F -4.8 °F 0.1 °F 55% 29.81 in 10.0 mi SSE 21.9 mph - N/A   Scattered Clouds
1:15 PM 14.4 °F -1.0 °F 1.6 °F 57% 29.79 in 10.0 mi SSE 15.0 mph 21.9 mph N/A   Clear
1:35 PM 14.9 °F -0.8 °F 2.3 °F 57% 29.76 in 10.0 mi SSE 16.1 mph 23.0 mph N/A   Clear
1:55 PM 15.8 °F 0.3 °F 4.1 °F 60% 29.74 in 10.0 mi SSE 16.1 mph 23.0 mph N/A   Clear
2:15 PM 16.7 °F 0.1 °F 5.2 °F 61% 29.72 in 10.0 mi SSE 19.6 mph - N/A   Scattered Clouds
2:35 PM 17.6 °F 3.2 °F 7.2 °F 64% 29.71 in 10.0 mi SSE 15.0 mph 21.9 mph N/A   Scattered Clouds
2:55 PM 18.1 °F 3.4 °F 7.5 °F 63% 29.70 in 10.0 mi South 16.1 mph 20.7 mph N/A   Scattered Clouds
3:15 PM 18.1 °F 4.4 °F 8.2 °F 65% 29.69 in 10.0 mi South 13.8 mph 20.7 mph N/A   Scattered Clouds
3:35 PM 18.5 °F 4.9 °F 9.1 °F 67% 29.68 in 10.0 mi South 13.8 mph 18.4 mph N/A   Mostly Cloudy
3:55 PM 19.0 °F 6.1 °F 9.5 °F 66% 29.68 in 10.0 mi South 12.7 mph 18.4 mph N/A   Overcast
4:15 PM 18.9 °F 3.3 °F 9.7 °F 67% 29.68 in 10.0 mi South 18.4 mph - N/A   Overcast
4:35 PM 18.5 °F 3.8 °F 9.9 °F 69% 29.67 in 10.0 mi South 16.1 mph 24.2 mph N/A   Mostly Cloudy
4:55 PM 18.5 °F 4.3 °F 10.0 °F 70% 29.66 in 10.0 mi South 15.0 mph - N/A   Scattered Clouds
5:15 PM 18.3 °F 4.6 °F 10.2 °F 71% 29.65 in 10.0 mi South 13.8 mph 17.3 mph N/A   Mostly Cloudy
5:35 PM 18.5 °F 6.1 °F 10.4 °F 71% 29.64 in 10.0 mi South 11.5 mph 20.7 mph N/A   Scattered Clouds
5:55 PM 18.5 °F 6.1 °F 10.9 °F 72% 29.63 in 10.0 mi SSE 11.5 mph - N/A   Clear
6:15 PM 18.9 °F 6.5 °F 11.1 °F 72% 29.63 in 10.0 mi SSE 11.5 mph - N/A   Scattered Clouds
6:35 PM 19.0 °F 6.1 °F 10.9 °F 71% 29.62 in 10.0 mi SSE 12.7 mph 18.4 mph N/A   Scattered Clouds
6:55 PM 19.4 °F 7.9 °F 11.3 °F 71% 29.62 in 10.0 mi SSE 10.4 mph - N/A   Scattered Clouds
7:15 PM 19.9 °F 7.9 °F 11.7 °F 70% 29.61 in 10.0 mi South 11.5 mph - N/A   Clear
7:35 PM 20.3 °F 6.1 °F 12.2 °F 71% 29.60 in 10.0 mi South 16.1 mph - N/A   Scattered Clouds
7:55 PM 21.0 °F 8.1 °F 12.7 °F 70% 29.60 in 10.0 mi South 13.8 mph 20.7 mph N/A   Scattered Clouds
8:15 PM 21.2 °F 7.8 °F 13.1 °F 71% 29.59 in 10.0 mi South 15.0 mph 23.0 mph N/A   Scattered Clouds
8:35 PM 21.6 °F 9.3 °F 13.3 °F 70% 29.58 in 10.0 mi South 12.7 mph 16.1 mph N/A   Scattered Clouds
8:55 PM 21.7 °F 7.5 °F 13.8 °F 72% 29.56 in 10.0 mi South 17.3 mph - N/A   Scattered Clouds
9:15 PM 22.5 °F 9.9 °F 14.2 °F 71% 29.56 in 10.0 mi South 13.8 mph 19.6 mph N/A   Scattered Clouds
9:35 PM 22.8 °F 8.5 °F 14.7 °F 71% 29.55 in 10.0 mi South 18.4 mph 27.6 mph N/A   Mostly Cloudy
9:55 PM 23.0 °F 7.2 °F 14.9 °F 71% 29.54 in 10.0 mi South 23.0 mph 29.9 mph N/A   Overcast
10:15 PM 23.4 °F 9.2 °F 15.3 °F 71% 29.54 in 10.0 mi South 18.4 mph 27.6 mph N/A   Overcast
10:35 PM 23.4 °F 9.2 °F 15.4 °F 72% 29.52 in 10.0 mi South 18.4 mph 24.2 mph N/A   Overcast
10:55 PM 23.5 °F 10.3 °F 15.6 °F 72% 29.52 in 10.0 mi South 16.1 mph 25.3 mph N/A   Overcast
11:15 PM 23.9 °F 10.3 °F 15.8 °F 71% 29.51 in 10.0 mi South 17.3 mph 26.5 mph N/A   Overcast
11:35 PM 24.1 °F 10.1 °F 16.3 °F 72% 29.51 in 10.0 mi South 18.4 mph 25.3 mph N/A   Overcast
11:55 PM 24.3 °F 10.8 °F 16.7 °F 73% 29.50 in 10.0 mi South 17.3 mph 20.7 mph N/A   Overcast